Flag for Canada Weather past 2 weeks in Waterloo, Ontario, Canada

Now
10 °F

Light snow. Overcast.


Feels Like: 2 °F
Forecast: 1 / 16 °F
Wind: 5 mph from North

Location: Waterloo Well

Current Time: Jan 27, 2015 at 5:28:15 AM

Latest Report: Jan 27, 2015 at 4:00 AM


Visibility: 9 mi

Pressure: 30.01 "Hg

Humidity: 67%

Dew point: 1 °F

Location of WaterlooLocation

Historic Weather in Waterloo — Graph

°F

Waterloo temperature yesterday

Maximum temperature yesterday: 18 °F (at 3:04 PM)
Minimum temperature yesterday: 5 °F (at 8:00 AM)
Average temperature yesterday: 11 °F

Past Weeks' High & Low Weather Summary

 TemperatureHumidityPressure
High41 °F (Jan 17, 11:00 PM)100% (Jan 12, 6:01 AM)30.82 "Hg (Jan 12, 6:01 AM)
Low-11 °F (Jan 13, 8:00 AM)38% (Jan 25, 3:00 PM)29.49 "Hg (Jan 24, 2:59 PM)
Average17 °F80%30.06 "Hg
* Reported Jan 12 4:00 AM — Jan 27 4:00 AM, Waterloo, Weather by CustomWeather, © 2014

Note: Actual official high and low records may vary slightly from our data, if they occured in-between our weather recording intervals... More about our weather records

Advertising

Waterloo weather history for previous 24 hours

 ConditionsComfort  
Time TempWeatherWind HumidityBarometerVisibility
4:00 AM
Jan 27
10 °FLight snow. Overcast.5 mph67%30.01 "Hg9 mi
3:00 AM10 °FLight snow. Mostly cloudy.7 mph72%30.01 "Hg9 mi
2:45 AM12 °FLight snow. Mostly cloudy.10 mph67%30.01 "Hg9 mi
2:00 AM12 °FLight snow. Overcast.8 mph67%30.00 "Hg9 mi
1:00 AM12 °FOvercast.6 mph67%29.99 "Hg9 mi
12:00 AM12 °FLight snow. Overcast.6 mph62%30.00 "Hg9 mi
11:01 PM
Jan 26
12 °FLight snow. Overcast.5 mph62%30.01 "Hg9 mi
10:00 PM12 °FOvercast.6 mph57%30.02 "Hg9 mi
9:00 PM12 °FOvercast.5 mph62%30.03 "Hg9 mi
8:00 PM12 °FMostly cloudy.7 mph62%30.02 "Hg9 mi
7:00 PM14 °FOvercast.9 mph62%30.00 "Hg9 mi
6:00 PM16 °FOvercast.10 mph53%29.99 "Hg9 mi
5:00 PM16 °FOvercast.16 mph62%29.96 "Hg9 mi
4:00 PM16 °FOvercast.14 mph62%29.95 "Hg9 mi
3:04 PM18 °FCloudy.9 mph62%29.95 "Hg9 mi
2:00 PM16 °FLight snow. Partly sunny.10 mph73%29.95 "Hg9 mi
1:47 PM16 °FLight snow. Overcast.13 mph67%29.95 "Hg9 mi
1:00 PM16 °FPassing clouds.12 mph67%29.97 "Hg9 mi
12:00 PM14 °FLight snow. Sunny.14 mph73%29.98 "Hg9 mi
11:00 AM12 °FLight snow. Sunny.16 mph73%30.01 "Hg9 mi
10:00 AM9 °FSunny.13 mph78%30.00 "Hg9 mi
9:00 AM7 °FLight snow. Sunny.13 mph85%30.00 "Hg9 mi
8:00 AM5 °FLight snow. Passing clouds.9 mph85%30.00 "Hg9 mi
7:00 AM7 °FLight snow. Clear.10 mph85%29.99 "Hg9 mi
6:00 AM9 °FLight snow. Passing clouds.12 mph85%29.99 "Hg9 mi
5:00 AM9 °FLight snow. Overcast.13 mph85%30.00 "Hg9 mi
Weather by CustomWeather, © 2014

See weather overviewHow to use our weather pages